Content
SEND FEEDBACK

Daily
Averages
Monthly
Summary
United States of America

MERIZO, GUAM


Home > North America > United States > Guam
Elevation: 3 meters     Latitude: 13 14N     Longitude: 144 39E

WEATHER
 
SELECT A DAY
Number of Records: 351,620;   Date Range: 1/1/95 - 10/20/14
 
SHARE

PRINT THIS DATA

[ ← Previous Day ]
WEATHER ALMANAC - 21 MARCH, 2014
[ Next Day → ]
[ °F ]   °C
Weather ElementAverageHighLow
Temperature25.5 °C28.4 °C (12:58 pm)22 °C (3:28 am)
Dewpoint21.9 °C23.2 °C (8:58 am)18.7 °C (3:58 am)
Humidity80.6 %89 % (1:08 am)68 % (11:58 am)
Barometer1009.8 hPa1012.2 hPa (9:32 pm)1007.8 hPa (1:58 pm)
Wind Speed20.8 km/h33.3 km/h (6:33 am)
Wind Gust33.3 km/h (5:13 am)
Weather ElementAverage
Visibility15.8 km
Wind DirectionENE (78.8 °)

Weather ElementTotal
Precipitation0.51 mm
Cooling Degree Days6.9 (Base 18.3)
Growing Degree Days15.2 (Base 10)
Averaged from 50 records on 21 March, 2014
WEATHER CONDITIONS BREAKOUT
WIND DIRECTION BREAKOUT
WEATHER BY HOUR - 21 MARCH, 2014
[ °F ]   °C
Local TimeTemperatureDewpointHumidityBarometerVisibilityWind DirectionWind SpeedGust SpeedPrecipitationEventsConditions
1:08 AM24 °C22 °C89 %1010.5 hPa16.1 kmENE (70°)18.5 km/hMostly Cloudy
1:13 AM25 °C21 °C78 %1010.5 hPa16.1 kmENE (70°)18.5 km/hScattered Clouds
1:58 AM22.9 °C19.7 °C82 %1009.5 hPa16.1 kmEast (80°)18.5 km/hPartly Cloudy
2:58 AM22.3 °C19.7 °C85 %1008.8 hPa16.1 kmENE (70°)16.7 km/hScattered Clouds
3:28 AM22 °C20 °C88 %1009.8 hPa16.1 kmENE (70°)24.1 km/hMostly Cloudy
3:38 AM24 °C21 °C83 %1009.8 hPa16.1 kmENE (70°)25.9 km/hMostly Cloudy
3:58 AM22.4 °C18.7 °C79 %1008.8 hPa16.1 kmEast (90°)16.7 km/hOvercast
4:58 AM24.7 °C22.4 °C87 %1008.5 hPa16.1 kmENE (70°)16.7 km/hMostly Cloudy
5:08 AM25 °C23 °C89 %1009.5 hPa16.1 kmENE (60°)18.5 km/hMostly Cloudy
5:13 AM25 °C23 °C89 %1009.5 hPa16.1 kmEast (80°)27.8 km/h33.3 km/hMostly Cloudy
5:23 AM25 °C22 °C83 %1009.5 hPa16.1 kmEast (80°)25.9 km/hMostly Cloudy
5:28 AM25 °C22 °C83 %1009.5 hPa16.1 kmEast (80°)18.5 km/hOvercast
5:33 AM25 °C22 °C83 %1009.5 hPa16.1 kmEast (80°)22.2 km/hMostly Cloudy
5:38 AM25 °C22 °C83 %1009.8 hPa16.1 kmEast (80°)22.2 km/hScattered Clouds
5:58 AM24.7 °C21.9 °C84 %1008.8 hPa16.1 kmEast (80°)22.2 km/hScattered Clouds
6:18 AM25 °C22 °C83 %1010.2 hPa16.1 kmEast (80°)20.4 km/hMostly Cloudy
6:23 AM25 °C22 °C83 %1010.2 hPa16.1 kmEast (80°)22.2 km/hMostly Cloudy
6:28 AM25 °C22 °C83 %1010.2 hPa16.1 kmENE (70°)27.8 km/hMostly Cloudy
6:33 AM25 °C22 °C83 %1010.2 hPa16.1 kmENE (70°)33.3 km/hMostly Cloudy
6:43 AM25 °C22 °C83 %1010.2 hPa16.1 kmEast (80°)25.9 km/hMostly Cloudy
6:48 AM25 °C22 °C83 %1010.2 hPa16.1 kmEast (80°)27.8 km/hScattered Clouds
6:58 AM24.6 °C21.3 °C82 %1009.5 hPa16.1 kmEast (90°)24.1 km/hPartly Cloudy
7:58 AM25.9 °C22 °C79 %1009.5 hPa16.1 kmEast (90°)31.5 km/hMostly Cloudy
8:58 AM26.5 °C23.2 °C82 %1010.2 hPa16.1 kmESE (120°)27.8 km/hScattered Clouds
9:58 AM27.5 °C22.4 °C74 %1010.2 hPa16.1 kmEast (100°)18.5 km/hClear
10:58 AM28 °C23 °C74 %1009.8 hPa16.1 kmEast (90°)22.2 km/h33.3 km/hScattered Clouds
11:58 AM25.3 °C19.1 °C68 %1008.8 hPa16.1 kmEast (90°)25.9 km/hPartly Cloudy
12:58 PM28.4 °C22.7 °C71 %1008.1 hPa16.1 kmEast (90°)24.1 km/hPartly Cloudy
1:58 PM28.4 °C22.7 °C71 %1007.8 hPa16.1 kmEast (80°)22.2 km/h33.3 km/hScattered Clouds
2:08 PM28 °C23 °C74 %1008.8 hPa16.1 kmENE (70°)20.4 km/hMostly Cloudy
2:23 PM28 °C23 °C74 %1008.8 hPa16.1 kmENE (70°)24.1 km/hMostly Cloudy
2:43 PM28 °C22 °C70 %1008.5 hPa16.1 kmENE (70°)20.4 km/hMostly Cloudy
2:58 PM27.5 °C22 °C72 %1007.8 hPa16.1 kmENE (70°)16.7 km/hMostly Cloudy
3:03 PM28 °C22 °C70 %1008.8 hPa16.1 kmEast (80°)16.7 km/hScattered Clouds
3:58 PM27.7 °C22.1 °C71 %1007.8 hPa16.1 kmEast (100°)22.2 km/hClear
4:58 PM26.9 °C22 °C74 %1008.1 hPa16.1 kmEast (90°)20.4 km/hScattered Clouds
5:18 PM27 °C22 °C74 %1009.5 hPa16.1 kmEast (80°)18.5 km/hMostly Cloudy
5:23 PM27 °C22 °C74 %1009.5 hPa16.1 kmEast (80°)16.7 km/hScattered Clouds
5:58 PM25.9 °C21.9 °C78 %1008.8 hPa16.1 kmEast (80°)14.8 km/hPartly Cloudy
6:27 PM26 °C22 °C78 %1009.8 hPa16.1 kmEast (80°)22.2 km/hRainLight Rain
6:39 PM25 °C22 °C83 %1010.2 hPa9.7 kmENE (70°)14.8 km/hHaze
6:58 PM25 °C22.8 °C88 %1009.5 hPa16.1 kmENE (70°)16.7 km/h0.25 mmMostly Cloudy
7:58 PM25.1 °C22.1 °C83 %1010.2 hPa16.1 kmENE (70°)16.7 km/hScattered Clouds
8:58 PM25.1 °C22.7 °C86 %1011.2 hPa16.1 kmENE (60°)13 km/hScattered Clouds
9:32 PM25 °C23 °C89 %1012.2 hPa12.9 kmEast (80°)22.2 km/hRainRain
9:37 PM24 °C22 °C89 %1012.2 hPa11.3 kmEast (80°)14.8 km/h27.8 km/hRainLight Rain
9:43 PM24 °C21 °C83 %1012.2 hPa16.1 kmEast (90°)14.8 km/hMostly Cloudy
9:58 PM24.5 °C21 °C81 %1011.2 hPa16.1 kmEast (80°)14.8 km/h0.25 mmScattered Clouds
10:58 PM24.7 °C22.2 °C86 %1011.2 hPa16.1 kmENE (70°)11.1 km/hMostly Cloudy
11:58 PM25.1 °C23.1 °C89 %1011.2 hPa16.1 kmENE (60°)16.7 km/hOvercast
Hourly data recorded from PGUA, located 0 kilometers away from Merizo, Guam







STORIES FROM OUR PARTNERS